Location: Bushrod
(6.3500°N, 10.7833°W)
Time: 19:53:37
(UTC+00:00)

Spelda - Pass Details

Date: 17 September 2019
Orbit: 362 x 21854 km, 4.2° (Epoch: 21 October)

Event Time Altitude Azimuth Distance (km) Brightness Sun altitude
Rises 19:33:40 0° 269° (W) 7,593 11.1 -13.7°
Reaches altitude 10° 19:41:17 10° 267° (W) 4,340 9.2 -15.6°
Maximum altitude 19:49:36 68° 185° (S) 701 3.7 -17.6°
Enters shadow 19:50:45 39° 114° (ESE) 828 3.7 -17.9°
